Hourly Weather Roundup
Issued by NWS Central Illinois

Current Version | Previous Version | Text Only | Print | Product List | Glossary On
Versions: 1 2 3 4 5 6 7 8 9 10 11 12 13 14 15 16 17 18 19 20 21 22 23 24 25 26 27 28 29 30 31 32 33 34 35 36 37 38 39 40 41 42 43 44 45 46 47 48 49 50
000
NZUS43 KILX 230710
HWRILX

AREA WEATHER ROUNDUP
NATIONAL WEATHER SERVICE, LINCOLN IL
200 AM CDT WED APR 23 2014


CITY           SKY/WX    TMP DP  RH WIND       PRES   REMARKS
BLOOMINGTON    CLEAR     35  28  76 NE6       30.10R WCI  30
CHAMPAIGN      CLEAR     40  29  64 NE13      30.07R WCI  32
DANVILLE       CLEAR     37  29  74 N3        30.05S
DECATUR        CLEAR     41  32  70 NE13      30.08R WCI  34
FLORA          NOT AVBL
GALESBURG      CLEAR     42  34  75 E13       30.07S WCI  35
JACKSONVILLE   PTCLDY    47  31  53 NE9       30.06S
LACON          CLEAR     35  30  83 CALM      30.10S
LAWRENCEVILLE  CLEAR     50  36  58 NE12      30.03R
LITCHFIELD     CLEAR     46  34  62 NE8       30.04S
$$


CITY           SKY/WX    TMP DP  RH WIND       PRES   REMARKS
LINCOLN        CLEAR     41  32  69 E6        30.09R
MACOMB         PTCLDY    39  30  69 NE5       30.08S
MATTOON        CLEAR     43  32  65 NE8       30.06R
MT CARMEL AP   CLEAR     50  37  62 N8        30.01S
OLNEY-NOBLE AP CLEAR     46  36  66 CALM      30.03R
PARIS          CLEAR     42  33  68 NE9       30.07S
PEORIA         CLEAR     42  29  59 E14       30.09S WCI  35
PONTIAC        CLEAR     37  30  75 CALM      30.10S
RANTOUL        CLEAR     41  29  62 NE8       30.09R
ROBINSON       CLEAR     48  38  70 NE10      30.05R
SPRINGFIELD    CLEAR     45  33  63 E13       30.07R
TAYLORVILLE    CLEAR     45  32  61 E13G18    30.05S
$$

...REGIONAL REPORTS...


CITY           SKY/WX    TMP DP  RH WIND       PRES   REMARKS
CHICAGO O`HARE CLEAR     38  27  64 NE9       30.11R WCI  31
KANKAKEE       CLEAR     36  31  82 N5        30.10R WCI  32
MOLINE         CLEAR     41  32  70 E10       30.09R WCI  35
MOUNT VERNON   CLEAR     43  30  61 N5        30.02S
PITTSFIELD     PTCLDY    50  29  45 N5        30.06R
QUINCY         PTCLDY    45  31  58 NE6       30.05R
ROCKFORD       CLEAR     37  27  67 NE3       30.13R
$$


CITY           SKY/WX    TMP DP  RH WIND       PRES   REMARKS
BURLINGTON     MOCLDY    48  31  51 NE6       30.05S
CEDAR RAPIDS   MOCLDY    45  30  55 NE9       30.06S
DES MOINES     CLOUDY    54  32  43 E7        30.05S
KIRKSVILLE     MOCLDY    48  33  56 NE6       30.05F
OTTUMWA        MOCLDY    49  34  56 NE8       30.06R
ST LOUIS       PTCLDY    50  34  54 CALM      30.04S
$$


CITY           SKY/WX    TMP DP  RH WIND       PRES   REMARKS
TERRE HAUTE    CLEAR     44  33  65 NE10      30.05R
EVANSVILLE     CLEAR     52  36  54 N3        30.00R
INDIANAPOLIS   CLEAR     41  28  60 N10       30.03S WCI  35
LAFAYETTE      CLEAR     38  27  64 N8        30.06S WCI  32
MADISON        CLEAR     35  28  75 NW3       30.13R
MILWAUKEE      CLEAR     35  29  78 N8        30.13R WCI  29
$$





USA.gov is the U.S. government's official web portal to all federal, state and local government web resources and services.